When you browse on this site, cookies collect data to enhance your experience and personalize the content and advertising you see.
Visit our Privacy Policy to learn more. By continuing to use the site, you agree to this use of cookies and data.
  • In Schweiz
  • Länderverzeichnis
  • Für 7 Tage
  • Wassertemperatur
  • Satellitenkarten
  • Wetterkarte
  • Widgets
  • user-avatar
    Anmelden

    Stündliche Wetter Nettetal

    Heute, 16 Juli, Dienstag

    Zeit Temperatur Niederschläge Wind Luftdruck Luftfeuchtigkeit
    00:00 +13°C° 0 mm 2 m/S 760 mmHg 89%
    01:00 +13°C° 0 mm 2 m/S 760 mmHg 89%
    02:00 +12°C° 0 mm 1 m/S 760 mmHg 89%
    03:00 +12°C° 0 mm 1 m/S 759 mmHg 90%
    04:00 +13°C° 0 mm 1 m/S 759 mmHg 87%
    05:00 +14°C° 0 mm 1 m/S 759 mmHg 84%
    06:00 +15°C° 0 mm 1 m/S 759 mmHg 81%
    07:00 +16°C° 0 mm 2 m/S 759 mmHg 76%
    08:00 +16°C° 0 mm 2 m/S 760 mmHg 72%
    09:00 +17°C° 0 mm 2 m/S 760 mmHg 67%
    10:00 +18°C° 0 mm 2 m/S 759 mmHg 65%
    11:00 +19°C° 0 mm 2 m/S 759 mmHg 63%
    12:00 +20°C° 0 mm 2 m/S 759 mmHg 61%
    13:00 +21°C° 0 mm 2 m/S 759 mmHg 58%
    14:00 +21°C° 0 mm 2 m/S 759 mmHg 56%
    15:00 +23°C° 0 mm 2 m/S 758 mmHg 54%
    16:00 +23°C° 0 mm 2 m/S 758 mmHg 58%
    17:00 +21°C° 0 mm 2 m/S 758 mmHg 62%
    18:00 +21°C° 0 mm 2 m/S 758 mmHg 66%
    19:00 +20°C° 0 mm 1 m/S 758 mmHg 72%
    20:00 +18°C° 0 mm 1 m/S 758 mmHg 77%
    21:00 +16°C° 0 mm 1 m/S 758 mmHg 82%
    22:00 +15°C° 0 mm 1 m/S 758 mmHg 84%
    23:00 +15°C° 0 mm 1 m/S 758 mmHg 85%

    Morgen, 17 Juli, Mittwoch

    Zeit Temperatur Niederschläge Wind Luftdruck Luftfeuchtigkeit
    00:00 +14°C° 0 mm 1 m/S 758 mmHg 87%
    01:00 +13°C° 0 mm 0 m/S 758 mmHg 87%
    02:00 +13°C° 0 mm 0 m/S 758 mmHg 88%
    03:00 +12°C° 0 mm 0 m/S 757 mmHg 89%
    04:00 +13°C° 0 mm 0 m/S 757 mmHg 86%
    05:00 +14°C° 0 mm 0 m/S 757 mmHg 83%
    06:00 +15°C° 0 mm 0 m/S 757 mmHg 81%
    07:00 +17°C° 0 mm 0 m/S 757 mmHg 74%
    08:00 +19°C° 0 mm 0 m/S 757 mmHg 68%
    09:00 +21°C° 0 mm 0 m/S 757 mmHg 61%
    10:00 +22°C° 0 mm 0 m/S 757 mmHg 58%
    11:00 +24°C° 0 mm 1 m/S 756 mmHg 54%
    12:00 +25°C° 0 mm 1 m/S 756 mmHg 51%
    13:00 +25°C° 0 mm 1 m/S 756 mmHg 49%
    14:00 +25°C° 0 mm 1 m/S 756 mmHg 48%
    15:00 +26°C° 0 mm 2 m/S 755 mmHg 47%
    16:00 +25°C° 0 mm 2 m/S 755 mmHg 51%
    17:00 +24°C° 0 mm 2 m/S 755 mmHg 56%
    18:00 +24°C° 0 mm 3 m/S 755 mmHg 60%
    19:00 +21°C° 0 mm 3 m/S 755 mmHg 65%
    20:00 +20°C° 0 mm 3 m/S 755 mmHg 70%
    21:00 +18°C° 0 mm 2 m/S 755 mmHg 76%
    22:00 +18°C° 0 mm 2 m/S 755 mmHg 76%
    23:00 +17°C° 0 mm 2 m/S 755 mmHg 77%

    übermorgen, 18 Juli, Donnerstag

    Zeit Temperatur Niederschläge Wind Luftdruck Luftfeuchtigkeit
    00:00 +17°C° 0 mm 2 m/S 754 mmHg 78%
    01:00 +17°C° 0 mm 2 m/S 754 mmHg 79%
    02:00 +16°C° 0 mm 2 m/S 754 mmHg 81%
    03:00 +16°C° 0 mm 1 m/S 754 mmHg 82%
    04:00 +17°C° 0 mm 2 m/S 754 mmHg 78%
    05:00 +17°C° 0 mm 2 m/S 753 mmHg 75%
    06:00 +18°C° 0 mm 2 m/S 753 mmHg 71%
    07:00 +20°C° 0 mm 2 m/S 753 mmHg 67%
    08:00 +21°C° 0 mm 3 m/S 753 mmHg 63%
    09:00 +22°C° 0 mm 3 m/S 753 mmHg 59%
    10:00 +24°C° 0 mm 3 m/S 753 mmHg 55%
    11:00 +25°C° 0 mm 4 m/S 753 mmHg 51%
    12:00 +26°C° 0 mm 4 m/S 753 mmHg 47%
    13:00 +26°C° 0 mm 4 m/S 753 mmHg 46%
    14:00 +26°C° 0 mm 4 m/S 753 mmHg 45%
    15:00 +26°C° 0 mm 4 m/S 753 mmHg 44%
    16:00 +25°C° 0 mm 4 m/S 753 mmHg 50%
    17:00 +22°C° 0 mm 4 m/S 753 mmHg 57%
    18:00 +21°C° 0 mm 3 m/S 753 mmHg 63%
    19:00 +20°C° 0 mm 3 m/S 753 mmHg 67%
    20:00 +19°C° 0 mm 3 m/S 753 mmHg 70%
    21:00 +18°C° 0 mm 2 m/S 754 mmHg 74%
    22:00 +17°C° 0 mm 3 m/S 754 mmHg 77%
    23:00 +17°C° 0 mm 3 m/S 754 mmHg 79%

    19 Juli, Freitag

    Zeit Temperatur Niederschläge Wind Luftdruck Luftfeuchtigkeit
    00:00 +16°C° 0 mm 3 m/S 754 mmHg 82%
    01:00 +16°C° 0 mm 3 m/S 754 mmHg 86%
    02:00 +14°C° 0 mm 3 m/S 754 mmHg 89%
    03:00 +14°C° 0 mm 3 m/S 754 mmHg 92%
    04:00 +14°C° 0 mm 4 m/S 754 mmHg 89%
    05:00 +15°C° 0 mm 4 m/S 754 mmHg 85%
    06:00 +15°C° 0 mm 4 m/S 754 mmHg 81%
    07:00 +18°C° 0 mm 4 m/S 755 mmHg 76%
    08:00 +19°C° 0 mm 3 m/S 755 mmHg 70%
    09:00 +20°C° 0 mm 3 m/S 755 mmHg 65%
    10:00 +21°C° 0 mm 3 m/S 756 mmHg 60%
    11:00 +22°C° 0 mm 3 m/S 756 mmHg 55%
    12:00 +24°C° 0 mm 3 m/S 756 mmHg 50%
    13:00 +24°C° 0 mm 3 m/S 756 mmHg 50%
    14:00 +25°C° 0 mm 3 m/S 756 mmHg 50%
    15:00 +25°C° 0 mm 3 m/S 756 mmHg 50%
    16:00 +24°C° 0 mm 3 m/S 756 mmHg 53%
    17:00 +23°C° 0 mm 2 m/S 756 mmHg 56%
    18:00 +23°C° 0 mm 2 m/S 757 mmHg 59%
    19:00 +20°C° 0 mm 2 m/S 757 mmHg 64%
    20:00 +19°C° 0 mm 2 m/S 757 mmHg 68%
    21:00 +18°C° 0 mm 1 m/S 758 mmHg 72%
    22:00 +18°C° 0 mm 1 m/S 758 mmHg 75%
    23:00 +16°C° 0 mm 1 m/S 757 mmHg 77%

    20 Juli, Samstag

    Zeit Temperatur Niederschläge Wind Luftdruck Luftfeuchtigkeit
    00:00 +15°C° 0 mm 0 m/S 757 mmHg 79%
    01:00 +15°C° 0 mm 1 m/S 757 mmHg 80%
    02:00 +15°C° 0 mm 1 m/S 757 mmHg 80%
    03:00 +15°C° 0 mm 1 m/S 757 mmHg 81%
    04:00 +16°C° 0 mm 1 m/S 757 mmHg 78%
    05:00 +18°C° 0 mm 1 m/S 757 mmHg 74%
    06:00 +19°C° 0 mm 1 m/S 757 mmHg 71%
    07:00 +20°C° 0 mm 1 m/S 757 mmHg 66%
    08:00 +21°C° 0 mm 2 m/S 757 mmHg 61%
    09:00 +23°C° 0 mm 2 m/S 757 mmHg 56%
    10:00 +24°C° 0 mm 2 m/S 757 mmHg 52%
    11:00 +25°C° 0 mm 2 m/S 757 mmHg 48%
    12:00 +26°C° 0 mm 3 m/S 757 mmHg 43%
    13:00 +27°C° 0 mm 3 m/S 757 mmHg 42%
    14:00 +27°C° 0 mm 2 m/S 756 mmHg 41%
    15:00 +28°C° 0 mm 2 m/S 756 mmHg 40%
    16:00 +27°C° 0 mm 2 m/S 757 mmHg 44%
    17:00 +27°C° 0 mm 1 m/S 757 mmHg 47%
    18:00 +27°C° 0 mm 1 m/S 757 mmHg 51%
    19:00 +25°C° 0 mm 1 m/S 757 mmHg 54%
    20:00 +23°C° 0 mm 1 m/S 758 mmHg 58%
    21:00 +21°C° 0 mm 1 m/S 758 mmHg 61%
    22:00 +21°C° 0 mm 1 m/S 759 mmHg 65%
    23:00 +20°C° 0 mm 1 m/S 759 mmHg 68%

    21 Juli, Sonntag

    Zeit Temperatur Niederschläge Wind Luftdruck Luftfeuchtigkeit
    00:00 +18°C° 0 mm 2 m/S 759 mmHg 72%
    01:00 +18°C° 0 mm 2 m/S 759 mmHg 74%
    02:00 +18°C° 0 mm 1 m/S 759 mmHg 77%
    03:00 +18°C° 0 mm 1 m/S 759 mmHg 79%
    04:00 +19°C° 0 mm 1 m/S 759 mmHg 77%
    05:00 +20°C° 0 mm 1 m/S 760 mmHg 75%
    06:00 +21°C° 0 mm 1 m/S 760 mmHg 73%
    07:00 +22°C° 0 mm 1 m/S 760 mmHg 67%
    08:00 +24°C° 0 mm 1 m/S 760 mmHg 62%
    09:00 +26°C° 0 mm 1 m/S 760 mmHg 56%
    10:00 +27°C° 0 mm 1 m/S 760 mmHg 53%
    11:00 +28°C° 0 mm 1 m/S 760 mmHg 50%
    12:00 +29°C° 0 mm 1 m/S 760 mmHg 47%
    13:00 +28°C° 0 mm 1 m/S 760 mmHg 48%
    14:00 +28°C° 0 mm 1 m/S 760 mmHg 48%
    15:00 +28°C° 0 mm 1 m/S 760 mmHg 49%
    16:00 +28°C° 0 mm 1 m/S 760 mmHg 52%
    17:00 +27°C° 0 mm 1 m/S 760 mmHg 55%
    18:00 +27°C° 0 mm 1 m/S 760 mmHg 59%
    19:00 +26°C° 0 mm 1 m/S 760 mmHg 62%
    20:00 +24°C° 0 mm 2 m/S 761 mmHg 65%
    21:00 +23°C° 0 mm 2 m/S 761 mmHg 68%
    22:00 +23°C° 0 mm 2 m/S 761 mmHg 70%
    23:00 +21°C° 0 mm 2 m/S 761 mmHg 72%
    Mehr zeigen